Date String (YYYY-MM-DD hh:mm:ss) UTC,Instrument flags,Ambient pressure (hPa),Sample flow (lpm),Bypass flow (lpm),Sample temperature (°C),Ambient temperature (°C),ASC tube jacket temperature (°C),LED temperature (°C),Box temperature (°C),Sample RH (%),Span deviation,Mass concentration (μg/m³),Mass concentration (μg/m³),Mass concentration (μg/m³)
DateTimeUTC,F1_M11,P_M11,Q1_M11,Q2_M11,T1_M11,T2_M11,T3_M11,T4_M11,T5_M11,U1_M11,ZSPAN_M11,X0_M11,X2_M11,X1_M11
2023-01-01 11:00:00,,0817.8,4.95,0.00,22.0,20.8,00.0,30.8,23.7,14.4,0000.0,0003.73,0002.31,0001.70
2023-01-01 11:01:00,,0817.7,5.00,0.00,22.0,20.8,00.0,30.8,23.7,14.4,0000.0,0003.90,0002.36,0001.70
2023-01-01 11:02:00,,0817.8,4.99,0.00,22.0,20.8,00.0,30.8,23.7,14.4,0000.0,0003.99,0002.37,0001.69
2023-01-01 11:03:00,,0817.8,5.05,0.00,22.0,20.8,00.0,30.8,23.7,14.3,0000.0,0004.21,0002.40,0001.69
2023-01-01 11:04:00,,0817.7,4.96,0.00,22.0,20.8,00.0,30.8,23.7,14.3,0000.0,0004.23,0002.39,0001.68
2023-01-01 11:05:00,,0817.7,4.98,0.00,22.0,20.8,00.0,30.8,23.7,14.4,0000.0,0004.16,0002.37,0001.67
2023-01-01 11:06:00,,0817.7,4.99,0.00,22.0,20.8,00.0,30.8,23.7,14.3,0000.0,0004.21,0002.39,0001.67
2023-01-01 11:07:00,,0817.6,4.96,0.00,22.0,20.8,00.0,30.8,23.7,14.3,0000.0,0004.19,0002.35,0001.66
2023-01-01 11:08:00,,0817.6,4.99,0.00,22.0,20.8,00.0,30.8,23.7,14.3,0000.0,0004.25,0002.36,0001.66
2023-01-01 11:09:00,,0817.6,5.00,0.00,22.0,20.8,00.0,30.8,23.8,14.3,0000.0,0004.23,0002.34,0001.65
2023-01-01 11:10:00,,0817.7,5.04,0.00,22.0,20.8,00.0,30.8,23.7,14.3,0000.0,0004.17,0002.33,0001.64
2023-01-01 11:11:00,,0817.8,5.03,0.00,22.0,20.8,00.0,30.8,23.8,14.3,0000.0,0004.03,0002.29,0001.63
2023-01-01 11:12:00,,0817.8,4.98,0.00,22.0,20.8,00.0,30.8,23.8,14.3,0000.0,0003.98,0002.27,0001.62
2023-01-01 11:13:00,,0817.8,4.98,0.00,22.0,20.8,00.0,30.8,23.8,14.3,0000.0,0003.88,0002.25,0001.63
2023-01-01 11:14:00,,0817.7,4.99,0.00,22.0,20.8,00.0,30.8,23.8,14.2,0000.0,0003.78,0002.25,0001.62
2023-01-01 11:15:00,,0817.6,5.03,0.00,22.0,20.8,00.0,30.8,23.8,14.2,0000.0,0003.64,0002.24,0001.62
2023-01-01 11:16:00,,0817.6,4.98,0.00,22.0,20.8,00.0,30.8,23.8,14.2,0000.0,0003.80,0002.26,0001.60
2023-01-01 11:17:00,,0817.7,5.01,0.00,22.0,20.8,00.0,30.8,23.8,14.2,0000.0,0003.90,0002.27,0001.58
2023-01-01 11:18:00,,0817.8,5.02,0.00,22.0,20.8,00.0,30.8,23.8,14.1,0000.0,0003.94,0002.28,0001.57
2023-01-01 11:19:00,,0817.9,4.98,0.00,22.0,20.8,00.0,30.8,23.8,14.2,0000.0,0004.09,0002.30,0001.56
2023-01-01 11:20:00,,0817.9,5.00,0.00,22.0,20.8,00.0,30.8,23.8,14.2,0000.0,0004.13,0002.29,0001.56
2023-01-01 11:21:00,,0817.9,5.05,0.00,22.0,20.8,00.0,30.8,23.8,14.2,0000.0,0004.18,0002.32,0001.58
2023-01-01 11:22:00,,0817.9,5.02,0.00,22.0,20.8,00.0,30.8,23.8,14.2,0000.0,0004.31,0002.37,0001.59
2023-01-01 11:23:00,,0817.8,4.98,0.00,22.0,20.8,00.0,30.8,23.8,14.1,0000.0,0004.17,0002.33,0001.59
2023-01-01 11:24:00,,0817.8,5.06,0.00,22.0,20.8,00.0,30.8,23.8,14.2,0000.0,0004.14,0002.30,0001.58
2023-01-01 11:25:00,,0817.9,5.04,0.00,22.0,20.8,00.0,30.8,23.8,14.1,0000.0,0004.10,0002.26,0001.58
2023-01-01 11:26:00,,0817.9,5.02,0.00,22.0,20.8,00.0,30.8,23.8,14.2,0000.0,0004.20,0002.25,0001.59
2023-01-01 11:27:00,,0817.9,4.96,0.00,22.0,20.8,00.0,30.8,23.8,14.1,0000.0,0004.04,0002.21,0001.61
2023-01-01 11:28:00,,0817.9,4.99,0.00,22.0,20.8,00.0,30.8,23.9,14.1,0000.0,0003.99,0002.21,0001.62
2023-01-01 11:29:00,,0817.9,5.03,0.00,22.0,20.8,00.0,30.9,23.8,14.1,0000.0,0003.94,0002.20,0001.64
2023-01-01 11:30:00,,0817.9,4.98,0.00,22.0,20.8,00.0,30.9,23.9,14.1,0000.0,0003.72,0002.17,0001.64
2023-01-01 11:31:00,,0818.0,4.98,0.00,22.0,20.8,00.0,30.9,23.8,14.1,0000.0,0003.60,0002.14,0001.64
2023-01-01 11:32:00,,0818.0,5.00,0.00,22.0,20.8,00.0,30.9,23.8,14.1,0000.0,0003.55,0002.11,0001.62
2023-01-01 11:33:00,,0818.0,5.06,0.00,22.0,20.8,00.0,30.9,23.8,14.1,0000.0,0003.52,0002.09,0001.61
2023-01-01 11:34:00,,0818.0,4.99,0.00,22.0,20.7,00.0,30.9,23.8,14.1,0000.0,0003.69,0002.13,0001.62
2023-01-01 11:35:00,,0817.9,4.97,0.00,22.0,20.7,00.0,30.9,23.8,14.2,0000.0,0003.72,0002.17,0001.63
2023-01-01 11:36:00,,0817.9,4.98,0.00,22.0,20.7,00.0,30.9,23.8,14.1,0000.0,0003.71,0002.20,0001.64
2023-01-01 11:37:00,,0817.9,5.04,0.00,22.0,20.8,00.0,30.9,23.8,14.2,0000.0,0003.47,0002.16,0001.63
2023-01-01 11:38:00,,0817.9,4.99,0.00,22.0,20.8,00.0,30.9,23.8,14.2,0000.0,0003.63,0002.21,0001.63
2023-01-01 11:39:00,,0818.0,5.02,0.00,22.0,20.9,00.0,30.9,23.8,14.2,0000.0,0003.62,0002.23,0001.63
2023-01-01 11:40:00,,0817.9,4.97,0.00,22.0,20.9,00.0,30.9,23.8,14.1,0000.0,0003.64,0002.26,0001.63
2023-01-01 11:41:00,,0818.0,5.04,0.00,22.0,20.9,00.0,30.9,23.8,14.1,0000.0,0003.62,0002.24,0001.63
2023-01-01 11:42:00,,0817.9,5.03,0.00,22.0,20.9,00.0,30.9,23.8,14.1,0000.0,0004.46,0002.30,0001.65
2023-01-01 11:43:00,,0817.9,4.98,0.00,22.0,20.9,00.0,30.9,23.8,14.1,0000.0,0005.10,0002.32,0001.66
2023-01-01 11:44:00,,0817.9,4.98,0.00,22.0,20.9,00.0,30.9,23.9,14.1,0000.0,0005.05,0002.31,0001.68
2023-01-01 11:45:00,,0817.9,4.97,0.00,22.0,20.9,00.0,30.9,23.9,14.1,0000.0,0005.01,0002.31,0001.69
2023-01-01 11:46:00,,0817.9,5.03,0.00,22.0,20.9,00.0,30.9,23.9,14.1,0000.0,0005.09,0002.31,0001.69
2023-01-01 11:47:00,,0817.8,4.99,0.00,22.1,20.9,00.0,30.9,23.9,14.0,0000.0,0005.06,0002.29,0001.71
2023-01-01 11:48:00,,0817.9,4.99,0.00,22.1,20.9,00.0,30.9,23.9,14.0,0000.0,0005.09,0002.30,0001.71
2023-01-01 11:49:00,,0817.9,5.00,0.00,22.1,20.9,00.0,30.9,23.9,14.0,0000.0,0005.00,0002.29,0001.72
2023-01-01 11:50:00,,0817.9,4.98,0.00,22.1,20.9,00.0,30.9,23.9,14.0,0000.0,0004.92,0002.26,0001.72
2023-01-01 11:51:00,,0817.9,5.01,0.00,22.1,20.9,00.0,30.9,23.9,14.0,0000.0,0004.80,0002.22,0001.73
2023-01-01 11:52:00,,0817.9,5.06,0.00,22.1,20.9,00.0,30.9,23.9,14.0,0000.0,0004.72,0002.20,0001.73
2023-01-01 11:53:00,,0818.0,4.99,0.00,22.1,20.9,00.0,30.9,23.9,14.0,0000.0,0004.34,0002.18,0001.72
2023-01-01 11:54:00,,0818.0,4.99,0.00,22.1,20.9,00.0,30.9,23.9,14.1,0000.0,0003.94,0002.14,0001.72
2023-01-01 11:55:00,,0818.0,4.97,0.00,22.1,21.0,00.0,30.9,23.9,14.1,0000.0,0004.05,0002.12,0001.71
2023-01-01 11:56:00,,0818.0,5.04,0.00,22.1,21.0,00.0,30.9,23.9,14.1,0000.0,0003.93,0002.08,0001.69
2023-01-01 11:57:00,,0817.9,5.03,0.00,22.1,21.0,00.0,30.9,23.9,14.1,0000.0,0003.76,0002.04,0001.67
2023-01-01 11:58:00,,0817.9,4.98,0.00,22.1,21.0,00.0,30.9,24.0,14.1,0000.0,0003.82,0002.03,0001.65
2023-01-01 11:59:00,,0817.8,4.97,0.00,22.1,21.0,00.0,30.9,23.9,14.0,0000.0,0004.00,0002.08,0001.63
